Temperature
13 13 13 13 13 13 13 13 12 12 12 12 12 12 12 12 12 12 12 12 12 12 12 12 11 11 12 12 12 12 12 12 12 12 12 11 11 11 11 11 11 12 12
13 13 13 13 12 12 12 12 12 12 12 12 12 12 12 12 12 12 12 12 12 12 12 11 11 11 11 11 12 12 12 12 11 11 11 11 11 11 11 11 11 11 11
12 12 12 12 12 12 12 12 12 12 12 11 11 11 11 12 12 12 12 12 11 11 11 11 11 11 11 11 11 11 11 12 11 11 11 11 11 11 11 11 11 11 11
12 12 12 12 12 12 12 11 11 11 11 11 11 11 11 11 11 12 11 11 11 11 11 11 11 11 10 10 10 10 11 11 11 11 11 11 11 11 11 11 11 11 11
12 12 12 12 11 11 11 11 11 11 11 10 10 10 10 11 11 11 11 11 11 11 11 11 11 10 10 10 10 10 10 10 10 11 11 11 11 11 11 11 11 11 11
12 11 11 11 11 11 11 11 10 10 10 9 9 9 9 10 10 10 10 10 11 10 10 10 10 10 10 10 10 9 9 9 9 9 10 10 10 10 10 10 11 11 11
11 11 11 11 11 10 10 9 9 9 9 8 8 8 8 8 9 9 9 9 9 9 9 9 8 8 9 9 9 9 8 8 8 8 8 8 8 9 9 9 10 10 10
11 11 11 10 10 9 9 8 8 8 7 7 6 5 5 6 8 7 7 7 7 7 7 7 7 7 7 7 7 7 7 7 7 7 7 7 7 7 8 8 8 9 9
10 10 10 9 9 8 8 7 7 6 6 6 5 4 4 4 3 4 5 5 5 5 5 5 5 5 5 5 5 5 5 5 5 5 6 6 6 6 6 6 7 7 7
10 10 9 9 8 7 7 6 6 5 5 5 5 4 3 3 2 2 2 3 3 3 3 3 3 3 3 3 3 3 3 4 4 4 4 4 4 4 5 5 5 5 6
9 9 8 8 7 6 6 6 5 5 4 4 4 3 3 2 2 1 1 1 1 1 1 1 1 1 1 2 2 2 2 2 2 3 3 3 3 3 3 3 3 4 4
8 8 7 7 6 6 5 5 5 4 4 3 3 2 1 0 0 0 -0 -0 -0 -0 -0 -0 -0 -0 0 0 1 1 1 1 1 1 1 1 2 2 2 2 2 2 2
8 7 6 6 5 5 4 4 4 4 3 2 2 1 0 -0 -0 -1 -1 -1 -1 -1 -1 -1 -1 -1 -1 -1 -1 -1 -1 -1 -1 -1 -0 -0 0 0 0 0 0 0 1
7 6 5 5 4 4 4 4 3 3 2 1 1 0 -1 -1 -1 -2 -2 -2 -2 -2 -2 -2 -2 -2 -2 -3 -3 -2 -2 -2 -2 -2 -2 -2 -1 -1 -1 -1 -1 -1 -1
5 5 4 4 4 3 3 3 2 2 1 0 -1 -1 -2 -2 -2 -2 -2 -2 -3 -3 -3 -3 -3 -3 -4 -4 -4 -4 -4 -4 -3 -3 -3 -3 -3 -2 -2 -2 -2 -2 -1
4 4 3 3 3 3 2 2 1 0 -0 -1 -2 -2 -2 -3 -3 -3 -3 -3 -4 -4 -4 -4 -4 -4 -5 -5 -5 -5 -5 -5 -4 -4 -4 -4 -3 -3 -3 -3 -3 -2 -2
3 3 3 3 2 2 1 1 0 -1 -2 -2 -3 -3 -3 -4 -4 -4 -4 -4 -4 -5 -5 -5 -5 -5 -6 -6 -6 -6 -6 -5 -5 -5 -5 -4 -4 -4 -3 -3 -3 -3 -3
3 2 2 2 2 1 0 -0 -1 -2 -3 -3 -3 -4 -4 -5 -5 -5 -5 -5 -5 -6 -6 -6 -6 -6 -6 -6 -6 -6 -6 -6 -6 -6 -5 -5 -5 -4 -4 -4 -4 -3 -3
2 2 2 1 1 0 -1 -2 -3 -4 -4 -4 -5 -5 -6 -6 -6 -6 -6 -6 -6 -6 -7 -7 -7 -7 -7 -7 -7 -7 -6 -6 -6 -6 -6 -6 -6 -5 -5 -5 -4 -4 -4
1 1 1 0 -0 -1 -2 -3 -4 -4 -5 -5 -5 -6 -6 -7 -6 -6 -6 -6 -7 -7 -7 -7 -7 -7 -7 -7 -7 -7 -7 -7 -7 -7 -7 -7 -7 -6 -6 -5 -5 -5 -4
1 1 0 -1 -2 -3 -3 -4 -5 -5 -6 -6 -6 -7 -7 -7 -7 -7 -7 -7 -7 -7 -7 -7 -7 -7 -8 -8 -8 -8 -8 -8 -8 -8 -8 -7 -7 -7 -7 -7 -6 -6 -5
0 -0 -1 -2 -3 -3 -4 -5 -5 -6 -6 -7 -7 -7 -8 -8 -7 -7 -7 -7 -7 -7 -7 -8 -8 -8 -8 -8 -8 -9 -9 -9 -8 -8 -8 -8 -8 -8 -7 -7 -7 -6 -5
-1 -1 -2 -3 -3 -4 -5 -5 -6 -6 -7 -7 -8 -8 -8 -8 -8 -8 -8 -8 -8 -8 -8 -8 -8 -9 -9 -9 -9 -9 -9 -9 -8 -8 -9 -8 -8 -8 -8 -7 -7 -6 -6
-1 -2 -2 -3 -4 -5 -5 -6 -6 -7 -7 -8 -8 -8 -8 -8 -8 -8 -8 -8 -8 -8 -9 -9 -9 -9 -9 -9 -9 -9 -9 -9 -9 -9 -9 -9 -9 -8 -8 -8 -8 -7 -6
-2 -2 -3 -4 -5 -5 -6 -6 -7 -7 -7 -8 -8 -9 -9 -9 -9 -8 -8 -8 -8 -9 -9 -9 -9 -9 -9 -10 -10 -10 -10 -10 -9 -9 -9 -9 -9 -9 -9 -8 -7 -7 -6
-2 -3 -4 -5 -6 -6 -7 -7 -7 -7 -8 -8 -9 -9 -9 -9 -9 -8 -8 -9 -9 -9 -9 -10 -10 -10 -10 -10 -10 -10 -10 -10 -10 -10 -9 -9 -9 -9 -8 -8 -7 -7 -6
Wind_Speed
1 0 1 1 2 3 3 2 3 5 6 5 6 6 7 7 8 10 11 15 16 19 23 24 25 26 26 28 29 29 30 31 31 32 32 32 32 32 33 33 33 33 32
2 3 4 3 3 4 4 3 4 5 5 5 6 7 8 7 7 9 11 13 16 17 20 23 24 25 26 27 28 29 30 31 32 33 33 34 33 34 35 35 35 35 35
3 2 3 4 4 6 7 5 5 5 6 6 7 7 7 7 7 8 11 11 13 16 18 21 22 23 24 26 27 29 29 30 31 32 33 34 34 34 36 37 37 37 38
8 5 6 6 7 7 5 6 5 6 7 7 7 7 7 7 10 8 8 10 11 11 13 15 17 20 23 25 27 28 28 28 29 30 31 33 34 35 37 38 38 38 39
14 8 6 6 8 5 6 7 6 6 7 7 7 7 7 8 9 10 10 7 8 9 10 13 16 18 19 22 25 26 27 27 27 28 29 30 32 34 36 38 39 40 40
14 10 5 7 7 6 6 7 7 7 6 7 10 9 9 10 9 6 8 9 9 12 12 13 13 15 18 21 23 25 27 27 28 28 29 29 30 31 32 34 36 38 40
13 9 6 7 7 6 7 8 6 8 7 7 6 7 8 8 7 8 12 12 11 9 12 12 11 12 13 19 22 26 28 29 30 29 29 29 29 30 31 31 32 33 36
12 10 7 7 7 6 8 7 6 6 6 7 6 6 5 6 5 12 11 8 10 10 10 11 12 12 12 11 15 23 27 29 31 31 31 31 30 31 31 32 32 33 33
12 10 8 6 7 6 6 7 7 7 6 6 6 4 5 5 10 6 7 11 9 9 11 10 11 10 14 12 14 18 25 30 32 33 32 31 31 31 32 33 33 34 34
10 10 8 7 6 6 6 7 7 6 6 6 6 4 5 8 6 7 6 7 11 12 11 13 11 10 14 13 17 22 25 27 30 31 31 32 33 33 34 35 35 35 35
8 9 8 6 6 5 6 6 6 6 5 5 5 6 8 7 7 10 13 9 8 8 9 10 11 11 11 13 12 19 26 30 32 33 34 34 35 35 36 37 37 36 36
6 7 7 6 5 5 5 5 5 7 6 6 6 6 7 6 8 9 15 16 13 8 9 8 10 10 10 10 17 26 31 33 34 35 36 36 36 36 37 37 37 37 37
5 6 6 5 5 5 5 5 6 7 7 8 7 6 6 7 8 9 13 16 17 12 10 8 8 8 12 9 13 26 29 33 34 36 37 38 37 37 37 38 38 39 39
4 5 5 5 5 6 6 6 6 7 7 7 10 9 7 8 8 9 10 14 19 18 12 10 7 8 8 6 16 27 19 31 34 36 37 38 38 39 39 38 38 38 38
4 6 5 6 6 6 7 7 6 8 8 7 8 9 8 8 8 8 7 8 13 21 21 15 10 9 8 6 18 14 12 28 35 37 37 37 38 38 38 38 38 38 37
5 5 6 6 7 7 7 7 7 8 9 8 8 10 10 9 8 7 8 8 8 14 22 19 15 12 13 18 23 15 14 34 35 35 36 37 37 38 38 39 38 38 38
5 5 6 7 7 7 8 7 8 10 9 9 10 12 13 12 10 8 8 8 8 9 17 20 18 16 16 17 18 12 13 14 17 31 35 37 38 38 38 38 38 37 37
5 6 6 7 8 8 8 8 10 10 9 11 13 14 14 14 13 10 9 9 9 10 14 21 20 18 19 17 18 17 19 19 15 29 34 36 36 37 37 37 37 37 37
6 6 6 7 8 8 9 9 9 8 9 12 13 14 15 15 15 11 10 10 10 14 12 17 20 18 17 17 19 20 19 14 18 23 29 32 34 36 37 38 38 37 36
6 6 7 7 8 9 9 9 7 9 10 11 12 14 16 15 15 13 13 11 12 14 15 17 18 18 18 16 16 18 19 12 14 18 23 27 31 35 36 37 37 36 36
7 7 7 8 8 9 9 11 10 11 10 11 13 15 16 20 24 21 18 14 15 15 16 17 19 19 19 18 18 17 20 19 14 14 16 17 17 17 19 27 31 34 35
7 7 8 8 9 11 19 23 18 10 9 12 15 15 16 17 21 28 30 29 26 21 20 19 19 21 22 20 18 19 20 22 22 9 13 18 15 17 16 15 27 33 33
7 8 8 8 9 12 22 23 23 14 10 11 13 14 17 18 23 16 24 28 24 29 29 22 22 21 22 22 23 24 22 23 23 17 18 21 14 16 15 19 31 33 34
7 8 8 9 9 14 22 23 24 13 9 10 12 14 16 16 19 23 20 20 19 18 22 19 16 19 21 21 22 23 24 23 20 15 15 20 16 16 18 15 28 33 34
8 8 9 10 10 12 20 23 23 10 9 11 12 14 18 18 27 32 24 22 22 17 23 28 31 30 34 34 28 20 19 19 20 15 11 16 18 17 16 15 20 28 29
8 9 9 9 10 10 19 23 23 8 10 12 12 14 21 25 31 33 24 21 20 18 18 20 21 23 21 23 28 19 17 18 19 18 12 12 16 15 13 9 9 10 15
Wind_Direction
219 353 319 296 284 291 290 277 281 295 304 304 301 305 310 302 292 284 279 275 267 259 268 273 273 273 273 272 270 266 262 260 259 258 256 256 254 251 248 246 244 243 242
44 24 347 345 334 328 319 317 315 314 309 310 314 311 303 298 299 304 302 297 292 278 273 279 281 280 280 279 279 277 272 266 261 258 257 255 254 253 252 249 247 245 243
51 33 10 6 352 357 359 1 352 344 337 333 322 317 318 314 305 299 295 291 287 283 276 278 282 285 285 284 284 283 282 279 274 267 262 258 255 253 253 252 250 248 245
53 51 38 21 13 21 18 7 6 356 342 333 323 317 312 302 294 287 290 290 287 285 285 284 284 287 288 288 287 286 285 284 282 280 275 269 263 258 255 253 252 250 248
47 51 44 26 15 22 17 8 6 357 338 332 327 319 317 307 299 300 300 305 315 321 323 320 314 303 296 297 299 298 296 293 291 288 285 282 277 271 265 261 257 254 251
45 39 44 30 16 21 18 12 5 354 342 343 332 324 310 300 297 315 340 344 335 331 335 334 331 327 324 319 316 313 309 306 302 298 294 291 288 285 280 274 268 262 258
48 43 33 32 20 20 23 12 5 350 344 340 330 321 299 303 318 358 343 330 324 331 335 331 327 325 321 321 321 317 315 312 308 304 301 299 297 295 292 290 286 279 272
47 46 34 29 20 20 21 8 8 355 342 345 338 330 326 317 354 340 305 310 323 319 321 323 319 314 313 313 314 317 316 311 307 304 302 300 299 298 297 296 294 292 288
47 42 37 28 20 24 17 3 13 1 339 334 351 341 332 309 316 278 332 315 309 327 320 312 306 312 317 319 316 313 309 307 303 300 299 299 300 300 299 299 298 297 295
54 36 35 28 22 25 18 360 5 347 345 334 334 338 308 302 305 305 302 306 316 310 310 314 318 318 316 312 306 306 304 303 303 301 300 300 300 300 299 299 299 300 300
61 35 28 23 25 22 6 354 353 346 341 332 324 314 307 301 293 304 303 297 294 294 303 312 313 310 305 302 301 304 310 311 307 303 301 300 299 298 298 297 297 298 298
56 32 23 16 19 10 350 342 348 335 319 308 303 299 297 300 306 303 302 304 302 296 298 297 298 299 301 307 314 318 316 311 307 304 301 299 298 297 296 295 295 295 295
40 22 15 3 0 349 339 344 337 319 307 302 296 291 291 293 295 296 299 302 302 301 294 283 283 294 307 311 312 310 309 307 304 302 300 299 298 297 296 295 294 293 292
35 16 6 354 349 344 339 335 322 312 310 306 308 303 299 293 291 291 295 304 306 305 298 289 285 293 293 292 301 305 304 304 302 301 299 298 297 296 294 292 290 289 288
22 12 358 348 338 333 331 330 319 311 308 304 300 296 294 289 287 287 290 295 301 304 304 303 299 295 293 293 298 301 298 301 300 298 297 296 295 294 293 292 290 289 288
16 359 349 339 330 328 328 324 315 308 308 306 303 300 298 297 293 290 287 286 286 294 298 302 304 305 305 304 302 300 298 298 297 296 295 294 293 293 292 291 289 287 286
1 349 339 330 324 322 324 320 316 311 309 311 312 310 305 303 300 296 293 290 286 289 296 300 302 303 302 302 300 290 289 287 289 293 294 294 293 291 290 290 289 288 286
345 334 329 324 321 321 318 314 312 312 316 321 315 309 307 308 303 300 295 293 295 296 294 297 299 302 300 300 298 295 298 295 292 294 294 294 294 294 293 292 291 289 287
327 323 322 317 313 311 308 305 302 314 323 314 309 308 307 304 301 299 297 297 297 297 293 294 296 298 298 299 299 298 294 290 293 295 296 295 294 293 291 290 290 289 288
318 312 308 304 302 301 301 298 310 318 307 305 306 304 303 300 299 300 301 293 296 298 297 295 296 298 299 299 299 302 301 294 293 296 292 290 290 291 290 290 290 289 289
309 301 300 300 298 303 304 314 317 311 309 308 305 301 300 303 305 306 305 306 306 303 302 301 300 301 302 305 304 304 301 301 292 290 290 288 288 285 286 286 286 285 284
297 300 301 300 303 313 315 315 316 310 305 307 306 305 304 303 306 310 310 307 306 306 308 304 303 302 302 302 303 301 301 300 299 286 285 291 289 287 285 282 283 284 285
304 307 304 305 306 308 314 314 316 316 304 302 303 307 310 310 313 305 303 306 307 305 304 302 300 300 301 302 302 299 297 295 296 301 299 294 290 287 287 286 289 290 289
308 305 304 304 302 304 313 316 316 314 296 295 300 304 305 306 307 307 307 310 306 302 300 301 296 297 299 300 298 299 300 298 294 290 289 292 295 291 290 285 288 286 286
306 301 299 299 296 303 314 316 315 304 302 302 304 307 308 306 306 311 314 310 308 306 308 306 305 304 305 305 305 305 303 301 300 298 287 288 293 293 289 284 282 283 285
299 300 300 298 299 303 314 320 322 312 312 311 309 308 310 311 311 315 315 313 313 311 311 312 309 306 303 301 304 303 301 299 300 300 293 290 294 298 297 276 268 280 287
Height
1502 1502 1502 1501 1500 1499 1498 1497 1495 1494 1493 1492 1490 1489 1487 1485 1484 1482 1480 1478 1476 1474 1473 1471 1469 1467 1465 1463 1461 1460 1458 1457 1457 1457 1457 1457 1457 1458 1458 1459 1459 1459 1460
1501 1500 1500 1499 1498 1497 1496 1495 1493 1492 1490 1488 1486 1485 1483 1481 1479 1477 1475 1473 1471 1469 1467 1465 1463 1461 1459 1457 1455 1454 1452 1451 1449 1448 1448 1448 1448 1448 1449 1450 1450 1451 1451
1499 1498 1498 1497 1496 1495 1494 1492 1490 1488 1486 1484 1482 1480 1478 1476 1473 1471 1469 1467 1465 1463 1462 1460 1458 1456 1454 1452 1449 1447 1445 1443 1441 1440 1439 1438 1438 1438 1438 1439 1440 1441 1441
1496 1496 1495 1495 1494 1492 1491 1489 1487 1485 1482 1480 1477 1475 1473 1470 1468 1466 1464 1462 1460 1459 1457 1455 1453 1450 1448 1446 1443 1440 1438 1435 1433 1432 1430 1429 1428 1427 1427 1427 1428 1428 1429
1494 1494 1494 1493 1492 1490 1488 1486 1484 1481 1478 1475 1473 1470 1468 1465 1463 1461 1459 1457 1455 1453 1451 1449 1446 1444 1442 1439 1437 1434 1431 1428 1425 1423 1421 1419 1418 1417 1416 1416 1415 1415 1416
1493 1493 1492 1491 1490 1488 1486 1483 1481 1478 1476 1472 1468 1465 1462 1460 1458 1457 1454 1452 1450 1448 1445 1443 1440 1438 1435 1432 1430 1427 1424 1421 1418 1415 1412 1410 1408 1406 1405 1404 1403 1403 1403
1493 1492 1491 1490 1488 1486 1483 1481 1478 1475 1472 1468 1464 1458 1456 1455 1453 1451 1450 1448 1445 1442 1440 1437 1434 1431 1428 1425 1422 1419 1416 1413 1410 1407 1404 1402 1399 1396 1394 1392 1391 1390 1389
1492 1490 1489 1488 1486 1483 1481 1478 1475 1472 1470 1467 1463 1457 1452 1449 1448 1447 1444 1442 1439 1437 1433 1430 1427 1424 1421 1417 1414 1411 1408 1404 1401 1398 1396 1393 1390 1387 1384 1382 1380 1378 1376
1490 1489 1487 1485 1483 1480 1478 1475 1473 1470 1467 1466 1464 1461 1456 1449 1442 1438 1439 1436 1433 1430 1427 1424 1420 1417 1413 1409 1405 1402 1399 1396 1392 1390 1387 1384 1381 1377 1374 1372 1369 1367 1365
1488 1487 1485 1482 1480 1478 1475 1473 1471 1468 1466 1463 1461 1460 1458 1452 1444 1433 1431 1429 1427 1423 1420 1416 1413 1408 1405 1401 1397 1394 1390 1387 1384 1380 1377 1374 1371 1368 1364 1361 1358 1356 1353
1486 1484 1482 1480 1478 1475 1473 1471 1468 1466 1463 1460 1458 1454 1451 1448 1443 1436 1424 1419 1417 1416 1413 1409 1405 1401 1397 1393 1389 1386 1382 1378 1374 1371 1368 1364 1361 1357 1354 1351 1347 1344 1341
1484 1482 1480 1477 1475 1473 1470 1468 1465 1463 1460 1457 1454 1450 1447 1443 1438 1433 1423 1413 1408 1406 1404 1401 1397 1394 1390 1386 1382 1377 1373 1368 1364 1361 1357 1353 1350 1347 1343 1340 1336 1333 1330
1482 1480 1477 1475 1473 1470 1468 1465 1463 1459 1456 1453 1449 1446 1442 1439 1435 1430 1422 1411 1402 1396 1394 1391 1389 1386 1383 1378 1373 1369 1364 1360 1355 1351 1347 1343 1339 1335 1331 1328 1325 1321 1318
1480 1478 1475 1473 1471 1468 1465 1462 1459 1455 1452 1448 1445 1441 1437 1433 1429 1425 1419 1411 1397 1387 1383 1381 1379 1377 1373 1370 1365 1361 1356 1351 1346 1341 1337 1332 1327 1323 1319 1316 1313 1309 1306
1478 1475 1473 1471 1468 1465 1462 1458 1455 1451 1447 1443 1439 1435 1431 1426 1423 1419 1414 1410 1402 1386 1372 1370 1368 1366 1363 1360 1356 1352 1347 1342 1336 1331 1326 1321 1317 1312 1307 1303 1300 1297 1294
1475 1473 1470 1468 1465 1462 1458 1454 1450 1446 1442 1438 1433 1429 1425 1420 1416 1412 1407 1403 1398 1390 1373 1363 1359 1356 1352 1349 1346 1343 1337 1332 1326 1321 1315 1311 1306 1301 1296 1291 1287 1284 1281
1472 1470 1467 1464 1461 1458 1454 1449 1445 1440 1436 1432 1428 1423 1418 1413 1408 1404 1399 1395 1390 1385 1373 1360 1354 1348 1343 1338 1333 1330 1326 1321 1315 1310 1305 1299 1294 1289 1284 1279 1275 1271 1268
1469 1467 1464 1461 1457 1453 1449 1444 1439 1435 1431 1426 1421 1416 1411 1406 1401 1397 1392 1387 1382 1377 1370 1357 1347 1341 1334 1329 1323 1318 1314 1310 1305 1299 1294 1288 1282 1277 1272 1267 1262 1258 1255
1466 1464 1460 1457 1453 1448 1444 1439 1435 1430 1426 1421 1415 1410 1405 1400 1394 1390 1385 1379 1374 1368 1362 1353 1342 1335 1327 1321 1314 1307 1302 1297 1293 1288 1282 1276 1270 1265 1259 1254 1250 1245 1242
1463 1460 1456 1452 1448 1443 1439 1435 1430 1425 1420 1414 1409 1404 1399 1395 1389 1384 1378 1372 1367 1360 1354 1346 1336 1328 1320 1313 1307 1298 1289 1284 1280 1276 1269 1263 1258 1252 1246 1242 1237 1233 1229
1459 1456 1452 1448 1444 1439 1435 1431 1425 1419 1414 1408 1402 1398 1393 1389 1384 1379 1373 1367 1361 1354 1346 1339 1329 1321 1313 1306 1299 1291 1281 1272 1266 1265 1256 1249 1245 1238 1232 1228 1223 1219 1215
1455 1451 1447 1443 1439 1435 1430 1426 1421 1414 1408 1402 1396 1391 1387 1382 1377 1372 1367 1361 1355 1348 1340 1332 1323 1314 1306 1299 1291 1284 1275 1264 1251 1252 1246 1236 1234 1225 1220 1215 1211 1207 1203
1451 1447 1443 1438 1434 1430 1425 1420 1416 1410 1404 1398 1392 1386 1380 1375 1370 1363 1357 1352 1346 1341 1336 1328 1317 1308 1299 1292 1284 1274 1266 1258 1247 1241 1236 1223 1220 1214 1209 1204 1200 1196 1191
1447 1442 1438 1433 1429 1424 1420 1416 1410 1405 1398 1392 1387 1381 1375 1368 1362 1357 1349 1342 1336 1331 1326 1318 1311 1301 1293 1284 1277 1268 1258 1248 1239 1234 1230 1217 1208 1203 1197 1191 1187 1182 1178
1442 1438 1433 1428 1423 1419 1415 1410 1406 1399 1392 1386 1381 1376 1370 1363 1356 1351 1343 1334 1326 1320 1315 1309 1301 1293 1285 1277 1269 1260 1250 1241 1230 1224 1220 1212 1200 1192 1184 1178 1173 1170 1166
1438 1433 1429 1424 1420 1415 1410 1406 1402 1395 1387 1380 1374 1368 1363 1357 1350 1344 1336 1327 1319 1311 1304 1296 1289 1282 1274 1267 1261 1254 1245 1236 1225 1215 1209 1203 1193 1186 1173 1166 1163 1160 1155